Location: Henau
(47.4548°N, 9.1164°E)
Time: 11:23:42
(UTC+00:00)

Cosmos 2242 Rocket - Pass Details

Date: 03 March 2021
Orbit: 617 x 652 km, 82.5° (Epoch: 11 April)

Event Time Altitude Azimuth Distance (km) Brightness Sun altitude
Rises 19:05:25 0° 346° (NNW) 2,960 7.4 -19.9°
Reaches altitude 10° 19:07:44 10° 342° (NNW) 2,040 6.6 -20.3°
Maximum altitude 19:12:07 52° 266° (W) 792 4.4 -21.0°
Drops below altitude 10° 19:16:25 10° 190° (S) 2,002 6.1 -21.7°
Sets 19:18:40 0° 186° (S) 2,899 6.9 -22.1°
